^^
Your Local Weather - Clay, NY Station Historical Data
Daily Summary for February 2, 2017 Units:  Metric    English   Both
« Previous Day
Next Day »
Daily Weekly Monthly Yearly Custom
  High: Low: Average:
Temperature: -0.7 °C -6.2 °C -3.2 °C
Dew Point: -3.9 °C -13.2 °C -7.6 °C
Humidity: 90% 52% 73%
Wind Speed: 11.3km/h 0km/h 4km/h
Wind Gust: 25.7km/h - -
Wind- - West
Pressure: 1021.9 hPa 1014.1 hPa -
Precipitation: 2.29 mm    
Historical Graphs
 
 
Tabular Data for February 2, 2017
Time Temperature Dew Point Pressure Wind Wind Speed Wind Gust Humidity Rainfall Rate (Hourly) solar
00:00 -1.8 °C -6.6 °C 1014.4 hPa West 3.2 km/h 4.8 km/h 70% 0 mm 0 W/m2
00:05 -1.7 °C -6.5 °C 1014.4 hPa West 3.2 km/h 4.8 km/h 70% 0 mm 0 W/m2
00:12 -1.8 °C -6.6 °C 1014.4 hPa West 1.6 km/h 3.2 km/h 70% 0 mm 0 W/m2
00:18 -1.9 °C -6.5 °C 1014.4 hPa West 1.6 km/h 3.2 km/h 71% 0 mm 0 W/m2
00:24 -2.1 °C -6.6 °C 1014.4 hPa Calm   1.6 km/h 71% 0 mm 0 W/m2
00:30 -2.2 °C -6.6 °C 1014.4 hPa Calm     72% 0 mm 0 W/m2
00:35 -2.2 °C -6.6 °C 1014.1 hPa Calm     72% 0 mm 0 W/m2
00:42 -2.3 °C -6.2 °C 1014.1 hPa Calm     75% 0 mm 0 W/m2
00:48 -2.5 °C -6.3 °C 1014.1 hPa Calm     75% 0 mm 0 W/m2
00:54 -2.8 °C -6.4 °C 1014.1 hPa Calm     76% 0 mm 0 W/m2
00:59 -3 °C -6.6 °C 1014.1 hPa Calm     76% 0 mm 0 W/m2
01:05 -3.2 °C -6.8 °C 1014.1 hPa Calm     76% 0 mm 0 W/m2
01:12 -3.4 °C -7.1 °C 1014.1 hPa Calm     76% 0 mm 0 W/m2
01:18 -3.4 °C -6.8 °C 1014.1 hPa Calm   1.6 km/h 77% 0 mm 0 W/m2
01:24 -3.3 °C -6.7 °C 1014.1 hPa Calm   1.6 km/h 77% 0 mm 0 W/m2
01:30 -3 °C -6.6 °C 1014.1 hPa Calm     76% 0 mm 0 W/m2
01:35 -2.8 °C -6.5 °C 1014.1 hPa Calm     76% 0 mm 0 W/m2
01:42 -2.8 °C -6.4 °C 1014.4 hPa Calm     76% 0 mm 0 W/m2
01:48 -2.8 °C -6.4 °C 1014.4 hPa Calm     76% 0 mm 0 W/m2
01:54 -2.8 °C -6.4 °C 1014.4 hPa Calm     76% 0 mm 0 W/m2
01:59 -2.8 °C -6.3 °C 1014.4 hPa Calm     77% 0 mm 0 W/m2
02:05 -2.7 °C -6.2 °C 1014.4 hPa Calm   1.6 km/h 77% 0 mm 0 W/m2
02:12 -2.6 °C -6.1 °C 1014.4 hPa Calm     77% 0 mm 0 W/m2
02:18 -2.6 °C -6.2 °C 1014.4 hPa Calm     76% 0 mm 0 W/m2
02:23 -2.6 °C -6.3 °C 1014.4 hPa Calm     76% 0 mm 0 W/m2
02:30 -2.7 °C -6.3 °C 1014.4 hPa Calm     76% 0 mm 0 W/m2
02:36 -2.7 °C -6.2 °C 1014.4 hPa Calm     77% 0 mm 0 W/m2
02:42 -2.7 °C -6.2 °C 1014.4 hPa Calm     77% 0 mm 0 W/m2
02:48 -2.7 °C -6.2 °C 1014.4 hPa Calm   1.6 km/h 77% 0 mm 0 W/m2
02:53 -2.6 °C -6.3 °C 1014.1 hPa WSW 1.6 km/h 4.8 km/h 76% 0 mm 0 W/m2
02:59 -2.4 °C -5.9 °C 1014.1 hPa WSW 3.2 km/h 3.2 km/h 77% 0 mm 0 W/m2
03:05 -2.3 °C -5.7 °C 1014.1 hPa SW 3.2 km/h 6.4 km/h 78% 0 mm 0 W/m2
03:12 -2.3 °C -5.3 °C 1014.1 hPa WSW 4.8 km/h 4.8 km/h 80% 0 mm 0 W/m2
03:18 -2.3 °C -5.1 °C 1014.1 hPa SW 3.2 km/h 6.4 km/h 81% 0 mm 0 W/m2
03:24 -2.3 °C -5 °C 1014.1 hPa WSW 3.2 km/h 4.8 km/h 82% 0 mm 0 W/m2
03:30 -2.3 °C -4.8 °C 1014.1 hPa WSW 3.2 km/h 3.2 km/h 83% 0 mm 0 W/m2
03:35 -2.3 °C -4.7 °C 1014.1 hPa WSW 1.6 km/h 11.3 km/h 84% 0 mm 0 W/m2
03:42 -2.3 °C -4.7 °C 1014.1 hPa West 3.2 km/h 3.2 km/h 84% 0 mm 0 W/m2
03:48 -2.3 °C -4.5 °C 1014.1 hPa West 1.6 km/h 4.8 km/h 85% 0 mm 0 W/m2
03:54 -2.3 °C -4.5 °C 1014.1 hPa West 1.6 km/h 3.2 km/h 85% 0 mm 0 W/m2
03:59 -2.3 °C -4.4 °C 1014.1 hPa West 1.6 km/h 3.2 km/h 85% 0 mm 0 W/m2
04:05 -2.2 °C -4.4 °C 1014.1 hPa SW 3.2 km/h 6.4 km/h 85% 0 mm 0 W/m2
04:12 -2.2 °C -4.5 °C 1014.4 hPa WSW 3.2 km/h 6.4 km/h 84% 0 mm 0 W/m2
04:18 -2.2 °C -4.5 °C 1014.1 hPa SW 3.2 km/h 6.4 km/h 84% 0 mm 0 W/m2
04:24 -2.2 °C -4.4 °C 1014.4 hPa West 3.2 km/h 6.4 km/h 85% 0 mm 0 W/m2
04:30 -2.3 °C -4.3 °C 1014.4 hPa WNW 3.2 km/h 3.2 km/h 86% 0 mm 0 W/m2
04:36 -2.4 °C -4.4 °C 1014.4 hPa West 1.6 km/h 3.2 km/h 86% 0 mm 0 W/m2
04:42 -2.4 °C -4.3 °C 1014.4 hPa West 1.6 km/h 1.6 km/h 87% 0 mm 0 W/m2
04:48 -2.4 °C -4.2 °C 1014.4 hPa West 1.6 km/h 4.8 km/h 88% 0 mm 0 W/m2
04:53 -2.5 °C -4.1 °C 1014.8 hPa Calm   1.6 km/h 89% 0 mm 0 W/m2
04:59 -2.6 °C -4.1 °C 1014.8 hPa Calm     89% 0 mm 0 W/m2
05:05 -2.6 °C -4.1 °C 1014.8 hPa Calm   1.6 km/h 89% 0 mm 0 W/m2
05:12 -2.6 °C -3.9 °C 1014.8 hPa Calm   1.6 km/h 90% 0 mm 0 W/m2
05:18 -2.6 °C -4 °C 1015.1 hPa West 1.6 km/h 1.6 km/h 90% 0 mm 0 W/m2
05:24 -2.6 °C -4 °C 1015.1 hPa West 1.6 km/h 1.6 km/h 90% 0 mm 0 W/m2
05:30 -2.7 °C -4.1 °C 1015.1 hPa NNW 1.6 km/h 3.2 km/h 90% 0 mm 0 W/m2
05:35 -2.7 °C -4.1 °C 1015.1 hPa NNW 1.6 km/h 3.2 km/h 90% 0 mm 0 W/m2
05:42 -2.8 °C -4.2 °C 1015.1 hPa NW 1.6 km/h 3.2 km/h 90% 0 mm 0 W/m2
05:48 -2.9 °C -4.4 °C 1015.1 hPa NW 1.6 km/h 3.2 km/h 89% 0 mm 0 W/m2
05:54 -2.9 °C -4.5 °C 1015.1 hPa NNW 3.2 km/h 4.8 km/h 89% 0 mm 0 W/m2
06:00 -3 °C -4.6 °C 1015.5 hPa NNW 3.2 km/h 3.2 km/h 89% 0 mm 0 W/m2
06:05 -3.1 °C -4.6 °C 1015.5 hPa NNW 3.2 km/h 4.8 km/h 89% 0 mm 0 W/m2
06:12 -3.1 °C -4.7 °C 1015.5 hPa North 3.2 km/h 3.2 km/h 89% 0 mm 0 W/m2
06:18 -3.2 °C -4.7 °C 1015.8 hPa NNW 1.6 km/h 4.8 km/h 89% 0 mm 0 W/m2
06:23 -3.2 °C -4.8 °C 1015.8 hPa NNW 1.6 km/h 3.2 km/h 89% 0 mm 0 W/m2
06:30 -3.2 °C -4.8 °C 1015.8 hPa NNW 3.2 km/h 3.2 km/h 89% 0 mm 0 W/m2
06:36 -3.3 °C -4.9 °C 1016.1 hPa NW 3.2 km/h 6.4 km/h 89% 0 mm 0 W/m2
06:42 -3.4 °C -4.9 °C 1016.1 hPa NNW 3.2 km/h 3.2 km/h 89% 0 mm 0 W/m2
06:48 -3.4 °C -5 °C 1016.1 hPa NNW 1.6 km/h 3.2 km/h 89% 0 mm 0 W/m2
06:53 -3.4 °C -5 °C 1016.1 hPa NNW 1.6 km/h 1.6 km/h 89% 0 mm 0 W/m2
06:59 -3.5 °C -5.1 °C 1016.1 hPa Calm     89% 0 mm 0 W/m2
07:06 -3.6 °C -5.1 °C 1016.5 hPa Calm     89% 0 mm 0 W/m2
07:12 -3.6 °C -5.2 °C 1016.5 hPa Calm     89% 0 mm 0 W/m2
07:18 -3.6 °C -5.2 °C 1016.5 hPa Calm   1.6 km/h 89% 0 mm 0 W/m2
07:23 -3.7 °C -5.2 °C 1016.5 hPa Calm     89% 0 mm 0 W/m2
07:29 -3.7 °C -5.2 °C 1016.5 hPa Calm     89% 0 mm 0 W/m2
07:36 -3.7 °C -5.2 °C 1016.5 hPa Calm     89% 0 mm 5 W/m2
07:42 -3.7 °C -5.2 °C 1016.5 hPa Calm     89% 0 mm 7 W/m2
07:48 -3.7 °C -5.2 °C 1016.5 hPa Calm     89% 0 mm 11 W/m2
07:53 -3.7 °C -5.2 °C 1016.5 hPa Calm     89% 0 mm 11 W/m2
07:59 -3.6 °C -5.2 °C 1016.5 hPa Calm     89% 0 mm 9 W/m2
08:05 -3.6 °C -5.2 °C 1016.5 hPa Calm     89% 0 mm 11 W/m2
08:12 -3.6 °C -5.1 °C 1016.5 hPa Calm     89% 0 mm 11 W/m2
08:18 -3.4 °C -5 °C 1016.5 hPa Calm     89% 0 mm 12 W/m2
08:23 -3.4 °C -5 °C 1016.8 hPa Calm     89% 0 mm 11 W/m2
08:29 -3.4 °C -4.9 °C 1017.2 hPa Calm     89% 0 mm 14 W/m2
08:36 -3.4 °C -4.9 °C 1016.8 hPa Calm     89% 0 mm 18 W/m2
08:42 -3.4 °C -5 °C 1016.8 hPa NNW 1.6 km/h 1.6 km/h 89% 0 mm 16 W/m2
08:48 -3.6 °C -5.3 °C 1017.2 hPa NNW 1.6 km/h 1.6 km/h 88% 0 mm 19 W/m2
08:53 -3.6 °C -5.2 °C 1017.2 hPa Calm   1.6 km/h 89% 0 mm 18 W/m2
09:00 -3.7 °C -5.4 °C 1017.2 hPa NNW 1.6 km/h 1.6 km/h 88% 0 mm 16 W/m2
09:06 -3.7 °C -5.4 °C 1017.2 hPa NNW 1.6 km/h 1.6 km/h 88% 0 mm 16 W/m2
09:12 -3.7 °C -5.4 °C 1017.2 hPa Calm     88% 0 mm 16 W/m2
09:18 -3.7 °C -5.4 °C 1017.2 hPa Calm     88% 0 mm 19 W/m2
09:23 -3.7 °C -5.2 °C 1017.2 hPa Calm     89% 0 mm 25 W/m2
09:29 -3.6 °C -5.2 °C 1017.2 hPa Calm     89% 0 mm 23 W/m2
09:36 -3.5 °C -5.1 °C 1017.2 hPa Calm     89% 0 mm 32 W/m2
09:42 -3.4 °C -5 °C 1017.2 hPa Calm     89% 0 mm 30 W/m2
09:48 -3.4 °C -5.2 °C 1017.2 hPa Calm     88% 0 mm 39 W/m2
09:53 -3.2 °C -4.9 °C 1017.2 hPa Calm   1.6 km/h 88% 0 mm 116 W/m2
09:59 -2.8 °C -4.8 °C 1017.2 hPa Calm   3.2 km/h 86% 0 mm 77 W/m2
10:05 -2.7 °C -4.7 °C 1017.2 hPa Calm   3.2 km/h 86% 0 mm 81 W/m2
10:12 -2.1 °C -4.6 °C 1017.2 hPa Calm     83% 0 mm 47 W/m2
10:18 -2.3 °C -4.8 °C 1017.2 hPa NNW 1.6 km/h 1.6 km/h 83% 0 mm 56 W/m2
10:23 -2.5 °C -5 °C 1017.2 hPa Calm   3.2 km/h 83% 0 mm 58 W/m2
10:30 -2.4 °C -4.8 °C 1017.2 hPa Calm     84% 0 mm 58 W/m2
10:35 -2.5 °C -5 °C 1017.2 hPa Calm   1.6 km/h 83% 0 mm 51 W/m2
10:42 -2.6 °C -5.1 °C 1017.2 hPa WSW 1.6 km/h 6.4 km/h 83% 0 mm 141 W/m2
10:48 -2.5 °C -4.8 °C 1017.2 hPa West 3.2 km/h 6.4 km/h 84% 0 mm 151 W/m2
10:54 -2.4 °C -4.9 °C 1017.2 hPa NE 3.2 km/h 4.8 km/h 83% 0 mm 74 W/m2
11:00 -2.7 °C -5 °C 1017.5 hPa NW 4.8 km/h 4.8 km/h 84% 0 mm 107 W/m2
11:06 -2.8 °C -4.8 °C 1017.5 hPa NW 3.2 km/h 4.8 km/h 86% 0 mm 83 W/m2
11:12 -2.8 °C -4.8 °C 1017.2 hPa NW 1.6 km/h 3.2 km/h 86% 0 mm 98 W/m2
11:18 -2.9 °C -4.9 °C 1017.5 hPa NW 1.6 km/h 3.2 km/h 86% 0 mm 86 W/m2
11:23 -2.9 °C -4.9 °C 1017.5 hPa WNW 3.2 km/h 4.8 km/h 86% 0 mm 121 W/m2
11:30 -3 °C -5.3 °C 1017.5 hPa NNW 4.8 km/h 4.8 km/h 84% 0 mm 83 W/m2
11:36 -3.1 °C -5.4 °C 1017.2 hPa WNW 4.8 km/h 4.8 km/h 84% 0 mm 84 W/m2
11:42 -3.3 °C -5.4 °C 1017.2 hPa NW 4.8 km/h 4.8 km/h 85% 0 mm 42 W/m2
11:48 -3.4 °C -5.4 °C 1017.2 hPa NW 4.8 km/h 6.4 km/h 86% 0 mm 42 W/m2
11:53 -3.5 °C -5.3 °C 1017.2 hPa NW 4.8 km/h 4.8 km/h 87% 0 mm 56 W/m2
11:59 -3.6 °C -5.3 °C 1017.2 hPa WNW 1.6 km/h 1.6 km/h 88% 0 mm 56 W/m2
12:05 -3.7 °C -5.4 °C 1017.2 hPa NW 3.2 km/h 4.8 km/h 88% 0 mm 95 W/m2
12:12 -3.7 °C -5.4 °C 1017.2 hPa NW 3.2 km/h 6.4 km/h 88% 0 mm 56 W/m2
12:18 -3.7 °C -5.4 °C 1017.2 hPa WNW 3.2 km/h 6.4 km/h 88% 0 mm 56 W/m2
12:24 -3.2 °C -4.8 °C 1017.2 hPa WNW 1.6 km/h 4.8 km/h 89% 0 mm 207 W/m2
12:30 -2.8 °C -4.7 °C 1017.2 hPa NNW 1.6 km/h 1.6 km/h 87% 0 mm 102 W/m2
12:35 -2.4 °C -4.6 °C 1017.2 hPa NNW 1.6 km/h 1.6 km/h 85% 0 mm 188 W/m2
12:42 -2.6 °C -5.1 °C 1017.2 hPa NW 3.2 km/h 3.2 km/h 83% 0 mm 186 W/m2
12:48 -1.9 °C -4.8 °C 1017.2 hPa WNW 3.2 km/h 6.4 km/h 81% 0 mm 591 W/m2
12:54 -2.2 °C -5 °C 1017.2 hPa WNW 3.2 km/h 3.2 km/h 81% 0 mm 227 W/m2
12:59 -2.1 °C -4.9 °C 1016.8 hPa West 3.2 km/h 3.2 km/h 81% 0 mm 318 W/m2
13:05 -1.2 °C -4.4 °C 1016.8 hPa WSW 3.2 km/h 3.2 km/h 79% 1.78 mm 701 W/m2
13:12 -1.5 °C -5 °C 1016.8 hPa NW 1.6 km/h 3.2 km/h 77% 2.29 mm 195 W/m2
13:18 -1.7 °C -4.9 °C 1016.8 hPa WNW 3.2 km/h 4.8 km/h 79% 2.29 mm 206 W/m2
13:24 -1.8 °C -5.6 °C 1016.8 hPa West 3.2 km/h 6.4 km/h 75% 2.03 mm 181 W/m2
13:29 -1.8 °C -6.6 °C 1016.8 hPa NW 6.4 km/h 6.4 km/h 70% 1.02 mm 508 W/m2
13:36 -1.4 °C -6.7 °C 1016.8 hPa West 8 km/h 11.3 km/h 67% 1.02 mm 510 W/m2
13:42 -1.2 °C -6.6 °C 1016.8 hPa WNW 8 km/h 12.9 km/h 67% 1.02 mm 524 W/m2
13:48 -0.8 °C -6.6 °C 1016.8 hPa WSW 8 km/h 12.9 km/h 65% 1.27 mm 621 W/m2
13:54 -0.7 °C -6.9 °C 1016.8 hPa West 8 km/h 9.7 km/h 63% 1.27 mm 599 W/m2
13:59 -1.1 °C -7 °C 1016.8 hPa WSW 8 km/h 16.1 km/h 64% 1.02 mm 425 W/m2
14:05 -0.9 °C -7.7 °C 1016.8 hPa WNW 8 km/h 16.1 km/h 60% 0 mm 594 W/m2
14:12 -1.1 °C -7.9 °C 1016.8 hPa WNW 8 km/h 8 km/h 60% 0 mm 272 W/m2
14:18 -1.4 °C -7.8 °C 1016.8 hPa WSW 6.4 km/h 11.3 km/h 62% 0 mm 167 W/m2
14:24 -1.8 °C -7.1 °C 1016.8 hPa WNW 6.4 km/h 6.4 km/h 67% 0 mm 98 W/m2
14:30 -2.2 °C -7.3 °C 1017.2 hPa WNW 4.8 km/h 8 km/h 68% 0 mm 88 W/m2
14:35 -2.4 °C -7 °C 1017.2 hPa West 6.4 km/h 12.9 km/h 71% 0 mm 86 W/m2
14:42 -2.7 °C -7.3 °C 1017.2 hPa NW 6.4 km/h 6.4 km/h 71% 0 mm 158 W/m2
14:48 -2.4 °C -7.3 °C 1017.2 hPa WNW 6.4 km/h 8 km/h 69% 0 mm 127 W/m2
14:54 -2.3 °C -7.8 °C 1017.2 hPa West 4.8 km/h 8 km/h 66% 0 mm 151 W/m2
15:00 -1.9 °C -7.3 °C 1017.2 hPa West 4.8 km/h 4.8 km/h 67% 0 mm 309 W/m2
15:06 -1.7 °C -7.1 °C 1017.2 hPa West 4.8 km/h 4.8 km/h 67% 0 mm 128 W/m2
15:12 -1.9 °C -7.4 °C 1017.5 hPa West 4.8 km/h 9.7 km/h 66% 0 mm 60 W/m2
15:18 -2.4 °C -7.2 °C 1017.8 hPa West 6.4 km/h 11.3 km/h 70% 0 mm 120 W/m2
15:23 -2.6 °C -7.2 °C 1017.8 hPa West 8 km/h 11.3 km/h 71% 0 mm 65 W/m2
15:29 -2.7 °C -7.2 °C 1017.8 hPa West 6.4 km/h 6.4 km/h 71% 0 mm 69 W/m2
15:35 -2.7 °C -7.3 °C 1017.8 hPa SW 4.8 km/h 11.3 km/h 71% 0 mm 232 W/m2
15:42 -2.6 °C -7.3 °C 1017.8 hPa West 4.8 km/h 4.8 km/h 70% 0 mm 237 W/m2
15:48 -2.6 °C -7.8 °C 1017.8 hPa West 4.8 km/h 8 km/h 67% 0 mm 42 W/m2
15:53 -2.7 °C -8.3 °C 1017.8 hPa West 4.8 km/h 8 km/h 65% 0 mm 53 W/m2
15:59 -2.7 °C -8.6 °C 1017.8 hPa West 6.4 km/h 6.4 km/h 64% 0 mm 62 W/m2
16:05 -2.7 °C -8.8 °C 1017.8 hPa West 6.4 km/h 11.3 km/h 63% 0 mm 40 W/m2
16:12 -2.7 °C -9.2 °C 1017.8 hPa WNW 4.8 km/h 4.8 km/h 61% 0 mm 65 W/m2
16:18 -2.6 °C -9.3 °C 1018.2 hPa WSW 4.8 km/h 6.4 km/h 60% 0 mm 70 W/m2
16:24 -2.5 °C -9.7 °C 1018.2 hPa West 6.4 km/h 11.3 km/h 58% 0 mm 74 W/m2
16:30 -2.4 °C -9.6 °C 1018.2 hPa WSW 8 km/h 8 km/h 58% 0 mm 76 W/m2
16:35 -2.4 °C -9.6 °C 1018.2 hPa West 6.4 km/h 8 km/h 58% 0 mm 58 W/m2
16:42 -2.4 °C -9.8 °C 1018.2 hPa NW 6.4 km/h 6.4 km/h 57% 0 mm 30 W/m2
16:48 -2.5 °C -10.6 °C 1018.2 hPa NW 8 km/h 9.7 km/h 54% 0 mm 21 W/m2
16:54 -2.6 °C -10.9 °C 1018.5 hPa West 8 km/h 17.7 km/h 53% 0 mm 18 W/m2
17:00 -2.6 °C -11.1 °C 1018.5 hPa WNW 6.4 km/h 6.4 km/h 52% 0 mm 12 W/m2
17:06 -2.7 °C -10.9 °C 1018.5 hPa WNW 6.4 km/h 6.4 km/h 53% 0 mm 14 W/m2
17:12 -2.7 °C -11.2 °C 1018.5 hPa NW 4.8 km/h 6.4 km/h 52% 0 mm 7 W/m2
17:18 -2.8 °C -11.1 °C 1018.5 hPa WSW 4.8 km/h 6.4 km/h 53% 0 mm 5 W/m2
17:23 -2.9 °C -11.4 °C 1018.5 hPa WNW 6.4 km/h 6.4 km/h 52% 0 mm 0 W/m2
17:29 -3 °C -11.3 °C 1018.8 hPa West 4.8 km/h 4.8 km/h 53% 0 mm 0 W/m2
17:35 -3.1 °C -11.1 °C 1018.8 hPa West 3.2 km/h 8 km/h 54% 0 mm 0 W/m2
17:42 -3.2 °C -11.2 °C 1018.8 hPa SW 1.6 km/h 3.2 km/h 54% 0 mm 0 W/m2
17:48 -3.2 °C -11 °C 1019.2 hPa WNW 3.2 km/h 4.8 km/h 55% 0 mm 0 W/m2
17:53 -3.2 °C -11.2 °C 1019.2 hPa West 4.8 km/h 9.7 km/h 54% 0 mm 0 W/m2
18:00 -3.1 °C -10.9 °C 1019.5 hPa WSW 4.8 km/h 4.8 km/h 55% 0 mm 0 W/m2
18:06 -3.2 °C -10.9 °C 1019.5 hPa West 3.2 km/h 12.9 km/h 55% 0 mm 0 W/m2
18:12 -3.2 °C -11.2 °C 1019.5 hPa SW 6.4 km/h 6.4 km/h 54% 0 mm 0 W/m2
18:18 -3.3 °C -11.6 °C 1019.9 hPa West 8 km/h 12.9 km/h 53% 0 mm 0 W/m2
18:23 -3.4 °C -11.7 °C 1019.9 hPa WNW 8 km/h 16.1 km/h 53% 0 mm 0 W/m2
18:29 -3.5 °C -11.7 °C 1019.9 hPa NW 8 km/h 8 km/h 53% 0 mm 0 W/m2
18:36 -3.6 °C -11.6 °C 1019.9 hPa WSW 6.4 km/h 8 km/h 54% 0 mm 0 W/m2
18:42 -3.7 °C -11.4 °C 1020.2 hPa WNW 4.8 km/h 8 km/h 55% 0 mm 0 W/m2
18:48 -3.7 °C -11 °C 1020.2 hPa WNW 6.4 km/h 9.7 km/h 57% 0 mm 0 W/m2
18:53 -3.8 °C -10.7 °C 1020.5 hPa WNW 8 km/h 11.3 km/h 59% 0 mm 0 W/m2
18:59 -3.9 °C -10.7 °C 1020.5 hPa WNW 8 km/h 8 km/h 59% 0 mm 0 W/m2
19:06 -4 °C -11.1 °C 1020.5 hPa West 8 km/h 12.9 km/h 58% 0 mm 0 W/m2
19:12 -4.1 °C -11.1 °C 1020.5 hPa WNW 9.7 km/h 12.9 km/h 58% 0 mm 0 W/m2
19:18 -4.2 °C -11.2 °C 1020.5 hPa WNW 9.7 km/h 12.9 km/h 58% 0 mm 0 W/m2
19:23 -4.2 °C -11.2 °C 1020.9 hPa NW 8 km/h 11.3 km/h 58% 0 mm 0 W/m2
19:29 -4.3 °C -11.6 °C 1020.9 hPa WNW 8 km/h 12.9 km/h 57% 0 mm 0 W/m2
19:36 -4.3 °C -11.6 °C 1020.9 hPa WNW 6.4 km/h 12.9 km/h 57% 0 mm 0 W/m2
19:42 -4.4 °C -11.7 °C 1020.9 hPa West 6.4 km/h 9.7 km/h 57% 0 mm 0 W/m2
19:48 -4.5 °C -11.9 °C 1021.2 hPa West 8 km/h 9.7 km/h 56% 0 mm 0 W/m2
19:53 -4.6 °C -12 °C 1021.2 hPa West 9.7 km/h 20.9 km/h 56% 0 mm 0 W/m2
19:59 -4.6 °C -12.3 °C 1021.2 hPa WNW 9.7 km/h 9.7 km/h 55% 0 mm 0 W/m2
20:05 -4.7 °C -12.3 °C 1021.2 hPa WSW 9.7 km/h 20.9 km/h 55% 0 mm 0 W/m2
20:12 -4.6 °C -12.3 °C 1021.2 hPa WSW 11.3 km/h 25.7 km/h 55% 0 mm 0 W/m2
20:18 -4.7 °C -12.4 °C 1021.2 hPa West 11.3 km/h 25.7 km/h 55% 0 mm 0 W/m2
20:23 -4.7 °C -12.2 °C 1021.2 hPa WSW 9.7 km/h 11.3 km/h 56% 0 mm 0 W/m2
20:29 -4.8 °C -12.3 °C 1021.2 hPa West 9.7 km/h 9.7 km/h 56% 0 mm 0 W/m2
20:36 -4.8 °C -12.3 °C 1021.2 hPa WSW 9.7 km/h 11.3 km/h 56% 0 mm 0 W/m2
20:42 -4.9 °C -12.3 °C 1021.2 hPa WSW 9.7 km/h 9.7 km/h 56% 0 mm 0 W/m2
20:48 -4.9 °C -12.4 °C 1021.2 hPa WSW 9.7 km/h 9.7 km/h 56% 0 mm 0 W/m2
20:54 -4.9 °C -12.4 °C 1021.2 hPa West 8 km/h 9.7 km/h 56% 0 mm 0 W/m2
20:59 -4.9 °C -12.1 °C 1021.2 hPa WSW 8 km/h 16.1 km/h 57% 0 mm 0 W/m2
21:06 -4.8 °C -12.3 °C 1021.6 hPa West 9.7 km/h 16.1 km/h 56% 0 mm 0 W/m2
21:12 -4.8 °C -12.3 °C 1021.6 hPa West 9.7 km/h 12.9 km/h 56% 0 mm 0 W/m2
21:18 -4.8 °C -12.3 °C 1021.6 hPa West 9.7 km/h 12.9 km/h 56% 0 mm 0 W/m2
21:23 -4.9 °C -12.3 °C 1021.6 hPa West 8 km/h 16.1 km/h 56% 0 mm 0 W/m2
21:30 -4.9 °C -12.3 °C 1021.6 hPa WSW 8 km/h 8 km/h 56% 0 mm 0 W/m2
21:35 -4.9 °C -12.6 °C 1021.6 hPa SW 8 km/h 11.3 km/h 55% 0 mm 0 W/m2
21:42 -4.9 °C -12.3 °C 1021.6 hPa WSW 8 km/h 8 km/h 56% 0 mm 0 W/m2
21:48 -5 °C -12.4 °C 1021.6 hPa SW 6.4 km/h 8 km/h 56% 0 mm 0 W/m2
21:53 -5.1 °C -12.5 °C 1021.6 hPa West 8 km/h 16.1 km/h 56% 0 mm 0 W/m2
22:00 -5.1 °C -12.3 °C 1021.6 hPa West 9.7 km/h 12.9 km/h 57% 0 mm 0 W/m2
22:06 -5.2 °C -12.4 °C 1021.9 hPa West 9.7 km/h 12.9 km/h 57% 0 mm 0 W/m2
22:12 -5.2 °C -12.4 °C 1021.9 hPa SW 9.7 km/h 14.5 km/h 57% 0 mm 0 W/m2
22:13 -5.3 °C -12.5 °C 1021.9 hPa West 9.7 km/h 14.5 km/h 57% 0 mm 0 W/m2
22:19 -5.3 °C -12.6 °C 1021.9 hPa WSW 9.7 km/h 9.7 km/h 57% 0 mm 0 W/m2
22:26 -5.4 °C -12.4 °C 1021.9 hPa WSW 8 km/h 9.7 km/h 58% 0 mm 0 W/m2
22:32 -5.4 °C -12.6 °C 1021.9 hPa WSW 8 km/h 11.3 km/h 57% 0 mm 0 W/m2
22:38 -5.4 °C -12.6 °C 1021.9 hPa WSW 9.7 km/h 11.3 km/h 57% 0 mm 0 W/m2
22:44 -5.3 °C -12.7 °C 1021.6 hPa West 8 km/h 9.7 km/h 56% 0 mm 0 W/m2
22:49 -5.3 °C -12.7 °C 1021.6 hPa West 8 km/h 8 km/h 56% 0 mm 0 W/m2
22:55 -5.3 °C -12.7 °C 1021.6 hPa West 6.4 km/h 8 km/h 56% 0 mm 0 W/m2
23:02 -5.4 °C -13 °C 1021.9 hPa West 8 km/h 11.3 km/h 55% 0 mm 0 W/m2
23:08 -5.5 °C -13.1 °C 1021.6 hPa WSW 9.7 km/h 11.3 km/h 55% 0 mm 0 W/m2
23:14 -5.6 °C -12.9 °C 1021.6 hPa West 8 km/h 12.9 km/h 56% 0 mm 0 W/m2
23:20 -5.7 °C -13.1 °C 1021.6 hPa WSW 8 km/h 8 km/h 56% 0 mm 0 W/m2
23:25 -5.7 °C -12.9 °C 1021.6 hPa SSW 9.7 km/h 12.9 km/h 57% 0 mm 0 W/m2
23:32 -5.8 °C -13 °C 1021.6 hPa SW 8 km/h 8 km/h 57% 0 mm 0 W/m2
23:38 -5.9 °C -13.1 °C 1021.6 hPa SW 8 km/h 12.9 km/h 57% 0 mm 0 W/m2
23:43 -6.1 °C -13.2 °C 1021.6 hPa WSW 9.7 km/h 14.5 km/h 57% 0 mm 0 W/m2
23:49 -6.1 °C -13.1 °C 1021.6 hPa West 8 km/h 8 km/h 58% 0 mm 0 W/m2
23:55 -6.2 °C -13.2 °C 1021.6 hPa West 4.8 km/h 8 km/h 58% 0 mm 0 W/m2
Country Meadow, Clay, NY, USA
Compliments of Weather Underground - 2 mb